Regional Weather Roundup
Issued by NWS

Home | Current Version | Previous Version | Graphics & Text | Print | Product List | Glossary On
Versions: 1 2 3 4 5 6 7 8 9 10 11 12 13 14 15 16 17 18 19 20 21 22 23 24 25 26 27 28 29 30 31 32 33 34 35 36 37 38 39 40 41 42 43 44 45 46 47 48 49 50
000
ASUS43 KBIS 142120
RWRND

NORTH DAKOTA REGIONAL WEATHER ROUNDUP
NATIONAL WEATHER SERVICE BISMARCK ND
400 PM CDT SUN SEP 14 2014

NOTE: "FAIR" INDICATES FEW OR NO CLOUDS BELOW 12,000 FEET WITH NO
SIGNIFICANT WEATHER AND/OR OBSTRUCTIONS TO VISIBILITY.


NDZ001>003-009>011-017-142200-
NORTHWEST NORTH DAKOTA

CITY           SKY/WX    TMP DP  RH WIND       PRES   REMARKS
WILLISTON      CLOUDY    57  29  34 CALM      30.15F
MINOT          CLOUDY    54  34  46 NW7       30.13F
MINOT AFB      CLOUDY    55  33  44 N10       30.13S
$$

NDZ018>021-031>035-040>046-142200-
SOUTHWEST NORTH DAKOTA

CITY           SKY/WX    TMP DP  RH WIND       PRES   REMARKS
BISMARCK       MOSUNNY   61  33  35 W6        30.14F
DICKINSON      CLOUDY    55  32  41 CALM      30.13S
GARRISON         N/A     56  33  42 NW13      30.13F
HETTINGER ARPT MOSUNNY   56  28  34 CALM      30.14S
$$

NDZ004>008-012>016-024-026-027-054-142200-
NORTHEAST NORTH DAKOTA

CITY           SKY/WX    TMP DP  RH WIND       PRES   REMARKS
GRAND FORKS    CLOUDY    57  42  57 NW12      30.09F
GRND FRKS AFB  CLOUDY    58  41  54 N10       30.10S
DEVILS LAKE    CLOUDY    54  36  50 NW10      30.10F
$$

NDZ022-023-025-028>030-036>039-047>053-142200-
SOUTHEAST NORTH DAKOTA

CITY           SKY/WX    TMP DP  RH WIND       PRES   REMARKS
FARGO          CLOUDY    59  43  55 N9        30.10F
JAMESTOWN      SUNNY     55  41  59 NW8       30.12F
$$



USA.gov is the U.S. government's official web portal to all federal, state and local government web resources and services.